Wind_Speed
12 9 7 1 1 0 3 3 3 8 11 7 20 4 8 4 4 1 11 29 28 30 26 23 22 19 18 16 14 12 11 10 9 8 7 7 7 7 8 9 9 12 15 14 11 10 13 15 16
9 8 2 2 2 4 3 1 1 4 8 7 17 3 4 2 2 6 22 32 30 30 26 22 19 19 17 16 15 14 12 10 8 7 6 8 8 8 9 10 11 14 14 13 14 13 12 15 18
6 2 1 0 2 3 1 1 1 3 12 15 9 2 2 2 1 18 23 34 32 29 25 22 20 19 18 17 16 14 12 8 5 5 6 9 10 11 11 10 12 15 15 14 15 13 14 18 16
1 1 0 1 3 2 1 2 8 12 8 8 4 4 4 2 7 18 35 35 32 29 25 22 21 20 20 18 16 13 11 8 5 5 9 10 11 10 10 11 14 17 14 15 15 14 14 16 17
1 2 1 2 3 1 2 5 9 8 8 9 6 4 4 4 9 25 34 33 31 29 26 23 21 19 18 17 14 12 10 7 6 9 12 11 12 10 10 12 14 15 12 14 16 15 15 17 15
2 1 3 4 3 3 2 10 11 7 7 8 5 7 4 5 17 28 29 30 28 28 24 22 21 18 17 15 13 11 10 8 7 10 11 12 10 10 10 12 12 11 9 14 16 15 15 13 11
3 2 1 3 5 3 3 12 11 7 4 5 11 5 5 11 20 27 26 27 27 26 23 21 21 20 17 15 13 12 10 9 8 9 9 11 11 10 10 12 10 11 7 14 14 12 11 11 11
4 1 1 2 4 3 3 4 5 5 4 11 11 6 9 19 23 27 26 26 26 25 24 21 20 19 18 17 14 11 11 10 8 9 9 9 9 9 10 10 10 10 9 14 13 11 10 11 9
1 2 3 2 3 4 4 3 3 3 10 4 5 6 13 27 27 27 29 28 25 25 25 23 22 20 19 17 13 12 10 11 10 8 9 8 10 10 9 9 10 10 10 12 11 11 9 8 8
0 1 3 3 4 7 1 3 5 5 11 4 10 10 23 27 29 30 34 31 25 24 26 24 23 21 19 17 15 13 12 10 11 10 9 9 9 10 10 10 10 10 10 10 11 11 9 8 6
1 3 3 8 11 9 5 3 4 6 8 10 13 23 27 27 25 28 28 28 28 27 25 26 24 22 21 19 17 16 14 12 11 10 9 7 9 10 9 11 11 10 9 9 9 9 9 9 7
4 8 6 5 6 2 3 3 5 9 4 4 14 23 30 27 27 28 29 28 27 27 27 26 25 23 22 21 19 16 14 14 12 11 11 9 9 10 11 11 10 11 11 10 10 9 8 8 8
7 8 11 13 9 3 3 2 2 5 4 10 18 25 30 28 25 26 26 25 26 26 26 26 25 24 22 21 19 16 15 15 13 12 12 10 9 9 10 10 10 10 12 11 10 9 9 8 7
6 15 16 7 3 1 3 2 1 4 11 18 21 25 28 28 27 25 28 29 28 27 27 25 26 24 23 21 19 17 15 15 15 14 12 11 12 11 11 9 10 11 11 11 11 9 8 8 9
6 6 3 9 2 1 2 10 8 11 17 21 22 23 26 25 26 29 27 29 26 24 25 25 25 24 24 22 20 18 17 16 16 15 14 13 12 10 9 10 10 13 12 10 9 9 10 12 14
5 2 5 7 3 3 2 10 1 17 20 19 24 24 25 27 29 29 29 26 27 25 25 24 23 24 24 24 21 20 19 18 17 16 16 15 13 11 8 8 12 12 12 11 10 9 10 13 15
6 3 6 7 1 1 3 13 2 14 17 19 23 26 28 27 28 31 32 31 29 26 26 23 19 22 24 24 22 21 20 19 18 18 17 17 15 12 10 9 10 12 13 13 12 11 13 14 15
2 4 3 6 6 6 9 18 11 13 20 22 24 24 26 29 33 35 34 32 32 31 27 22 20 23 23 23 24 23 22 21 21 22 20 18 16 14 13 12 12 13 15 15 14 14 13 13 12
2 3 9 7 8 9 8 15 19 13 21 22 24 27 28 31 28 32 34 33 32 34 31 25 29 19 26 26 26 26 25 24 22 25 22 19 17 15 14 13 12 14 14 14 14 14 14 13 11
2 6 10 5 6 6 12 16 9 5 12 23 24 26 29 25 26 29 32 32 34 33 35 31 30 24 26 26 26 27 26 27 25 24 24 22 20 17 17 16 17 16 16 13 14 15 15 15 13
6 5 8 8 9 3 8 6 7 1 7 10 23 28 28 31 28 29 32 34 32 33 34 34 34 27 26 28 27 28 28 27 27 28 26 24 19 19 22 21 20 19 19 18 16 16 16 15 13
14 4 5 7 7 5 4 4 5 7 10 9 16 23 25 29 30 28 30 32 36 34 30 33 34 35 28 25 28 30 31 30 28 29 27 24 22 18 20 23 23 21 21 21 19 19 17 18 17
9 4 5 3 3 4 2 3 5 5 10 10 8 12 23 28 30 32 32 33 33 31 31 30 33 35 30 28 29 28 31 31 28 28 27 25 26 24 21 20 21 22 21 22 22 21 20 20 20
4 3 1 2 2 5 2 4 5 5 4 10 11 9 10 20 27 28 29 27 29 30 31 31 32 35 36 31 30 31 28 28 30 30 28 27 27 27 25 25 26 24 23 23 22 23 22 23 23
5 4 4 6 6 7 3 3 6 11 8 10 17 10 4 13 23 25 27 28 28 31 31 30 29 31 34 33 32 30 31 30 28 27 29 29 28 28 28 26 28 26 26 25 25 26 24 24 25
8 10 6 10 8 7 4 4 6 6 13 13 11 6 5 10 17 23 26 29 24 27 29 29 27 27 30 32 30 31 30 30 30 28 28 28 28 29 27 24 25 25 25 27 27 29 30 28 28
6 6 1 3 1 4 3 5 12 6 7 7 7 3 3 7 12 18 23 28 24 25 26 25 26 26 26 24 24 26 29 29 28 29 26 27 28 24 25 26 25 26 26 26 27 29 28 25 21
5 9 4 1 6 9 5 4 6 12 11 13 14 15 11 6 9 16 20 27 24 23 24 24 24 23 22 23 23 23 24 23 23 25 27 26 26 23 24 26 28 28 30 29 28 28 25 24 23
4 4 3 2 2 6 7 5 2 5 7 11 15 18 10 13 13 17 22 26 26 26 25 25 25 25 25 24 25 25 25 25 25 24 23 19 20 19 16 18 22 26 25 20 20 23 26 25 24
1 5 5 5 6 2 2 5 2 3 6 7 17 21 16 10 14 14 22 26 29 29 27 26 24 24 23 23 24 24 26 26 25 24 24 25 23 21 22 21 22 24 25 22 22 22 21 20 20
Wind_Direction
138 142 150 189 278 298 62 72 332 123 151 180 163 166 177 123 187 37 159 164 169 163 159 162 166 163 159 160 158 157 153 146 141 138 141 137 134 128 132 132 128 133 141 145 142 130 123 125 120
136 141 138 218 41 57 16 317 58 139 155 156 163 118 161 134 144 146 149 161 170 163 160 161 164 167 168 167 164 163 159 155 155 154 152 138 133 132 132 133 138 139 141 135 131 129 123 121 118
130 37 279 93 105 90 126 279 101 130 148 149 171 50 54 50 108 154 160 159 169 165 161 161 164 165 165 162 162 161 158 154 151 156 150 138 137 135 133 131 136 142 136 131 128 127 123 123 117
352 335 268 10 83 131 221 104 124 123 138 158 165 87 68 316 160 157 159 161 169 167 164 161 162 162 162 162 163 160 154 149 142 148 157 145 143 136 131 138 128 136 132 136 131 130 120 124 128
340 239 75 90 38 255 218 150 150 143 151 173 170 113 74 50 155 155 158 161 169 167 166 164 162 165 162 164 163 161 157 150 131 125 139 143 140 136 140 142 141 139 139 141 138 140 136 129 122
301 18 31 46 348 304 81 155 157 215 145 151 113 109 82 104 153 154 159 162 170 171 167 172 171 172 170 168 168 165 166 154 131 123 135 145 146 137 136 145 141 142 143 141 139 144 144 140 130
7 16 22 312 327 351 65 147 177 189 169 172 149 95 125 139 161 159 161 165 169 173 171 172 177 183 185 183 179 173 175 161 141 133 135 136 142 140 139 146 145 142 145 143 144 150 153 142 124
354 2 302 300 4 22 108 132 147 153 126 132 155 147 163 167 167 167 169 169 172 176 177 173 180 180 183 182 183 179 183 167 151 147 139 147 146 149 146 146 147 149 144 143 158 160 146 147 138
329 341 339 1 308 334 144 132 97 129 146 123 168 150 169 162 169 171 171 174 179 183 184 182 185 183 182 181 182 188 188 172 166 171 153 163 161 158 160 153 155 160 161 162 172 167 159 150 143
175 160 241 257 243 288 270 164 126 128 153 109 93 127 156 165 170 170 173 177 181 187 189 188 190 187 185 185 185 196 188 180 181 183 175 178 166 164 163 158 160 168 173 179 182 185 182 170 158
170 243 233 264 230 256 251 230 148 155 187 206 178 155 160 167 169 174 177 181 182 186 191 193 193 194 192 191 191 203 193 184 187 188 180 188 176 173 167 168 165 172 182 190 188 193 198 199 193
273 254 248 279 223 179 236 164 160 199 156 224 187 172 165 169 175 179 181 185 186 189 192 195 198 200 198 198 199 206 196 194 191 186 178 177 181 185 177 175 175 176 180 199 207 210 208 209 212
257 292 315 279 295 328 107 243 264 210 234 158 163 167 171 176 179 184 186 188 191 196 197 200 201 203 203 201 204 206 199 199 199 195 189 187 181 182 188 187 185 181 184 192 200 206 212 213 235
240 293 300 329 297 123 277 241 230 154 154 150 164 173 178 180 180 181 190 194 198 200 202 204 206 206 208 206 207 206 204 204 204 205 204 199 199 202 199 201 202 195 187 194 205 211 217 221 225
266 315 357 28 66 106 238 259 229 165 165 162 172 178 184 189 185 191 189 197 199 204 207 210 209 211 211 212 211 210 205 207 209 208 204 200 198 202 210 213 206 197 195 198 202 204 215 226 230
13 36 3 8 72 14 289 289 17 175 174 180 181 183 191 195 197 197 200 201 205 209 212 215 213 214 213 216 213 211 210 208 208 209 206 205 206 207 205 201 186 190 196 208 222 227 231 244 250
23 349 349 348 55 106 232 295 337 184 197 189 193 194 195 198 204 205 206 208 210 210 213 215 221 219 215 215 216 215 212 211 208 207 208 209 213 218 222 216 207 208 217 229 240 251 261 269 262
307 315 345 318 323 300 279 278 274 221 213 214 203 201 204 205 208 209 212 215 216 216 215 211 208 220 216 217 215 215 216 215 210 208 208 211 214 223 233 238 232 234 238 244 250 258 267 272 272
179 287 306 308 311 312 305 291 291 254 225 219 214 207 209 212 211 214 217 218 220 224 224 219 213 218 216 215 213 212 214 213 213 209 210 216 220 223 233 236 237 242 249 256 263 264 265 271 283
248 301 309 297 299 319 316 308 325 203 226 220 218 219 215 213 211 212 215 218 220 226 224 219 219 219 213 215 216 213 214 214 211 212 215 220 226 228 233 237 245 246 252 252 257 266 271 272 264
244 265 293 293 321 252 311 289 318 279 241 222 222 226 221 212 209 208 211 216 219 225 224 223 224 221 218 216 215 216 218 221 220 219 220 224 229 232 232 238 242 247 252 255 257 265 273 274 269
255 205 267 297 328 314 341 306 297 329 308 226 226 221 220 217 213 212 209 214 220 224 227 226 226 228 222 216 215 217 221 220 221 226 229 233 235 234 234 239 242 248 253 256 257 262 270 272 267
261 158 286 306 274 290 186 248 284 326 302 320 355 229 222 215 212 214 212 221 226 226 227 228 227 229 225 226 222 219 222 227 230 233 236 236 237 238 243 244 244 248 253 257 257 259 264 269 261
121 195 106 110 219 259 46 262 268 267 258 314 333 358 221 212 207 211 216 219 224 227 232 230 230 229 229 228 227 229 228 230 232 233 233 236 239 242 246 252 244 248 255 255 258 260 264 267 265
187 220 242 236 229 258 126 232 270 283 281 277 304 307 221 205 205 207 207 209 216 220 227 230 232 229 229 230 231 233 235 239 240 242 244 242 243 247 251 255 250 256 255 258 260 260 257 262 265
205 228 229 240 240 255 171 233 266 260 303 290 274 263 228 201 205 205 205 209 215 216 221 226 229 229 228 230 232 234 237 240 244 246 247 249 253 258 258 258 252 255 257 260 262 260 258 259 268
163 202 297 171 90 256 270 260 279 282 268 309 300 327 303 212 207 204 204 208 216 209 213 216 220 224 227 229 232 237 239 241 242 243 249 252 253 258 254 250 253 257 257 255 255 256 260 265 292
244 140 177 212 225 249 219 264 259 290 316 342 328 329 334 290 216 203 204 204 207 207 211 215 217 220 223 228 233 238 241 241 242 244 248 253 255 259 260 247 249 255 259 267 263 263 256 261 273
160 188 62 138 263 255 259 250 255 306 305 306 306 312 324 299 247 213 208 208 211 206 211 214 218 220 224 230 237 240 244 247 247 249 248 246 242 241 253 255 253 259 266 272 260 264 263 258 263
212 197 193 242 200 228 312 256 172 342 332 310 306 319 333 330 252 244 223 216 212 215 211 211 217 222 226 233 240 245 248 248 249 251 250 249 252 249 245 250 250 251 256 257 260 259 260 257 261
Height
1513 1514 1515 1516 1520 1512 1519 1518 1514 1513 1516 1517 1520 1521 1521 1523 1525 1531 1527 1532 1537 1542 1547 1551 1554 1557 1559 1562 1564 1566 1567 1568 1569 1570 1570 1572 1572 1573 1574 1575 1576 1577 1578 1579 1581 1581 1582 1583 1584
1514 1514 1515 1514 1515 1521 1521 1514 1515 1513 1515 1517 1521 1522 1523 1523 1525 1525 1529 1534 1540 1543 1548 1551 1555 1558 1561 1563 1565 1567 1569 1570 1571 1572 1572 1573 1574 1575 1575 1576 1578 1579 1580 1581 1583 1585 1585 1585 1586
1516 1516 1517 1513 1518 1523 1519 1509 1511 1515 1516 1518 1521 1523 1524 1527 1526 1527 1530 1534 1541 1545 1549 1553 1556 1559 1562 1564 1567 1569 1571 1572 1572 1573 1573 1574 1576 1577 1578 1578 1580 1581 1583 1584 1585 1586 1587 1588 1589
1516 1517 1517 1516 1518 1514 1513 1512 1512 1515 1519 1521 1521 1523 1527 1527 1527 1529 1532 1537 1542 1547 1551 1554 1557 1560 1563 1566 1569 1571 1572 1573 1574 1574 1574 1576 1577 1578 1579 1580 1582 1583 1586 1587 1587 1589 1589 1591 1591
1515 1516 1514 1514 1515 1510 1510 1511 1514 1515 1518 1519 1521 1524 1529 1529 1528 1530 1535 1540 1544 1548 1553 1556 1559 1562 1565 1567 1570 1572 1574 1575 1575 1576 1577 1578 1579 1579 1581 1583 1584 1586 1587 1588 1589 1591 1592 1593 1594
1515 1515 1518 1521 1514 1510 1509 1511 1513 1514 1518 1520 1522 1524 1531 1531 1532 1535 1539 1543 1547 1550 1555 1557 1560 1563 1566 1569 1571 1573 1575 1576 1577 1578 1578 1580 1581 1582 1582 1583 1585 1587 1588 1590 1591 1593 1594 1596 1597
1517 1517 1521 1517 1514 1511 1510 1512 1514 1515 1517 1520 1521 1525 1532 1533 1534 1537 1542 1545 1549 1553 1556 1559 1561 1564 1567 1570 1572 1574 1576 1577 1578 1579 1580 1582 1582 1583 1584 1585 1587 1588 1590 1592 1593 1595 1596 1597 1599
1519 1519 1520 1517 1517 1514 1510 1512 1513 1515 1518 1520 1520 1523 1530 1530 1534 1539 1543 1546 1550 1553 1556 1560 1563 1565 1567 1571 1573 1575 1577 1578 1580 1580 1582 1584 1585 1585 1586 1587 1589 1591 1592 1594 1595 1596 1597 1599 1600
1520 1519 1519 1516 1514 1508 1509 1511 1514 1515 1517 1519 1521 1522 1523 1526 1532 1538 1543 1547 1550 1553 1556 1559 1562 1565 1568 1571 1574 1576 1578 1579 1581 1582 1583 1584 1586 1587 1587 1589 1591 1592 1594 1595 1597 1598 1599 1600 1602
1519 1522 1516 1510 1509 1506 1508 1509 1512 1516 1518 1520 1520 1522 1523 1526 1531 1534 1537 1543 1549 1552 1555 1558 1561 1564 1568 1571 1573 1576 1578 1579 1581 1582 1584 1585 1586 1587 1588 1590 1592 1593 1595 1596 1597 1599 1600 1602 1603
1518 1518 1511 1508 1507 1506 1508 1510 1510 1513 1517 1516 1517 1520 1523 1527 1533 1536 1540 1543 1545 1550 1554 1557 1560 1564 1567 1569 1572 1575 1577 1579 1581 1582 1584 1586 1587 1588 1590 1590 1592 1594 1595 1597 1598 1599 1601 1602 1604
1517 1510 1511 1507 1505 1504 1506 1509 1509 1511 1512 1514 1514 1517 1522 1527 1531 1535 1538 1542 1545 1548 1552 1556 1559 1562 1565 1568 1571 1574 1576 1578 1581 1582 1584 1585 1587 1588 1589 1591 1593 1595 1596 1597 1598 1599 1601 1602 1604
1518 1509 1506 1504 1507 1507 1508 1509 1509 1510 1510 1512 1515 1519 1521 1526 1530 1535 1539 1542 1544 1547 1550 1554 1557 1561 1564 1567 1569 1573 1575 1578 1580 1582 1583 1585 1587 1588 1589 1590 1592 1594 1596 1597 1598 1599 1601 1601 1604
1515 1509 1505 1503 1504 1507 1508 1509 1509 1510 1510 1512 1516 1519 1523 1525 1528 1533 1536 1538 1541 1545 1548 1552 1556 1559 1562 1565 1568 1571 1574 1577 1579 1581 1583 1585 1586 1588 1588 1589 1591 1593 1595 1597 1598 1600 1601 1602 1603
1513 1510 1505 1505 1506 1507 1508 1506 1505 1507 1511 1512 1515 1520 1524 1527 1529 1530 1533 1536 1539 1543 1546 1549 1554 1558 1560 1564 1567 1570 1572 1575 1578 1580 1583 1585 1586 1588 1589 1589 1590 1592 1595 1596 1597 1598 1600 1599 1599
1513 1511 1514 1507 1507 1509 1509 1508 1504 1505 1508 1512 1513 1517 1521 1524 1526 1529 1533 1536 1539 1542 1544 1548 1552 1555 1558 1561 1565 1568 1571 1573 1576 1579 1581 1584 1585 1587 1588 1589 1590 1591 1593 1595 1596 1597 1598 1595 1598
1518 1525 1521 1512 1509 1509 1510 1505 1503 1505 1507 1507 1512 1514 1516 1521 1524 1526 1529 1533 1536 1539 1543 1547 1552 1553 1556 1559 1563 1566 1569 1572 1574 1577 1579 1582 1584 1586 1587 1588 1590 1591 1593 1594 1594 1595 1596 1596 1597
1528 1525 1524 1524 1509 1509 1508 1502 1499 1501 1502 1503 1507 1511 1515 1516 1517 1522 1526 1530 1533 1536 1540 1546 1548 1550 1554 1558 1561 1564 1566 1569 1572 1574 1577 1580 1582 1584 1586 1587 1589 1590 1591 1592 1592 1593 1594 1594 1595
1518 1522 1523 1518 1509 1508 1504 1500 1489 1493 1496 1497 1500 1504 1507 1509 1514 1518 1522 1526 1530 1533 1537 1541 1544 1547 1550 1554 1556 1560 1562 1566 1569 1572 1575 1578 1580 1582 1584 1586 1587 1588 1589 1590 1590 1591 1592 1593 1592
1516 1520 1517 1513 1509 1512 1502 1495 1487 1488 1489 1491 1495 1498 1499 1507 1510 1512 1516 1520 1523 1527 1532 1537 1540 1544 1547 1550 1554 1557 1560 1563 1566 1569 1572 1575 1577 1580 1582 1583 1585 1587 1588 1588 1589 1589 1590 1590 1590
1514 1519 1518 1518 1511 1508 1506 1497 1489 1486 1488 1487 1488 1488 1492 1495 1500 1505 1509 1514 1518 1521 1525 1531 1535 1539 1544 1547 1551 1554 1557 1560 1563 1565 1568 1571 1574 1576 1578 1580 1582 1584 1585 1586 1586 1587 1588 1589 1589
1516 1511 1514 1515 1515 1521 1509 1519 1495 1484 1481 1481 1481 1483 1487 1489 1494 1498 1503 1507 1510 1514 1520 1526 1531 1535 1540 1543 1546 1549 1551 1554 1557 1561 1565 1568 1570 1572 1575 1576 1578 1580 1582 1582 1583 1584 1585 1585 1585
1511 1510 1513 1514 1515 1516 1512 1515 1493 1489 1479 1471 1473 1477 1478 1481 1487 1492 1495 1498 1503 1510 1515 1520 1526 1530 1535 1538 1541 1544 1547 1550 1554 1557 1560 1564 1566 1569 1571 1573 1575 1576 1577 1579 1579 1580 1581 1582 1583
1509 1511 1514 1517 1515 1521 1515 1514 1499 1487 1481 1473 1471 1475 1474 1477 1480 1485 1491 1497 1500 1505 1510 1515 1520 1524 1528 1532 1536 1539 1542 1546 1549 1552 1555 1558 1561 1564 1566 1569 1570 1572 1573 1574 1576 1577 1578 1579 1580
1509 1510 1522 1525 1523 1522 1519 1519 1496 1479 1476 1478 1472 1472 1472 1472 1476 1479 1484 1490 1494 1498 1503 1508 1513 1517 1523 1527 1530 1533 1537 1541 1544 1548 1551 1554 1557 1558 1561 1564 1566 1567 1569 1570 1572 1572 1574 1574 1575
1506 1504 1516 1536 1529 1516 1519 1513 1492 1476 1476 1473 1471 1469 1469 1470 1472 1475 1479 1484 1489 1493 1498 1503 1507 1512 1516 1521 1525 1529 1533 1536 1539 1542 1546 1550 1553 1554 1556 1558 1560 1562 1564 1565 1566 1567 1567 1568 1565
1506 1508 1500 1514 1530 1523 1508 1499 1482 1473 1472 1470 1467 1468 1468 1469 1470 1472 1476 1481 1485 1489 1493 1498 1502 1507 1512 1516 1520 1524 1528 1531 1533 1537 1541 1544 1547 1549 1550 1552 1554 1556 1557 1558 1558 1559 1560 1559 1553
1495 1498 1508 1511 1528 1530 1511 1513 1494 1477 1473 1473 1469 1468 1470 1468 1467 1470 1473 1477 1482 1487 1491 1495 1499 1503 1508 1512 1516 1519 1522 1525 1528 1532 1535 1538 1541 1543 1544 1546 1548 1550 1551 1553 1554 1555 1556 1556 1555
1499 1499 1507 1503 1509 1510 1514 1499 1476 1480 1478 1474 1469 1466 1469 1466 1467 1467 1469 1474 1479 1483 1488 1492 1495 1498 1503 1507 1510 1514 1516 1519 1523 1526 1530 1532 1535 1537 1538 1540 1542 1544 1545 1548 1547 1547 1548 1551 1553
1488 1488 1489 1501 1514 1513 1508 1495 1477 1479 1478 1475 1469 1465 1465 1464 1463 1467 1468 1470 1473 1479 1483 1486 1491 1494 1498 1502 1505 1508 1511 1514 1517 1520 1523 1526 1529 1530 1532 1535 1536 1538 1537 1542 1542 1542 1542 1544 1545